Time,TemperatureF,DewpointF,PressureIn,WindDirection,WindDirectionDegrees,WindSpeedMPH,WindSpeedGustMPH,Humidity,HourlyPrecipIn,Conditions,Clouds,dailyrainin,SoftwareType,DateUTC
2013-04-23 00:05:00,31.1,27.1,30.18,NW,323,2.7,4.0,85,0.00,,---,0.00,VWS V14.01,2013-04-23 05:05:00,
2013-04-23 00:11:00,31.1,27.1,30.18,NW,324,3.1,3.1,85,0.00,,---,0.00,VWS V14.01,2013-04-23 05:11:00,
2013-04-23 00:16:00,31.1,27.1,30.18,NW,324,2.2,3.6,85,0.00,,---,0.00,VWS V14.01,2013-04-23 05:16:00,
2013-04-23 00:22:00,30.9,27.0,30.18,NW,305,5.4,5.4,85,0.00,,---,0.00,VWS V14.01,2013-04-23 05:22:00,
2013-04-23 00:27:00,30.7,26.8,30.18,WNW,293,4.9,5.4,85,0.00,,---,0.00,VWS V14.01,2013-04-23 05:27:00,
2013-04-23 00:32:00,30.6,26.6,30.18,WNW,287,4.9,4.9,85,0.00,,---,0.00,VWS V14.01,2013-04-23 05:32:00,
2013-04-23 00:37:00,30.6,26.6,30.18,WNW,287,4.0,4.0,85,0.00,,---,0.00,VWS V14.01,2013-04-23 05:37:00,
2013-04-23 00:43:00,30.4,26.4,30.18,WNW,297,4.0,5.4,85,0.00,,---,0.00,VWS V14.01,2013-04-23 05:43:00,
2013-04-23 00:49:00,30.4,26.4,30.18,NW,325,3.6,3.6,85,0.00,,---,0.00,VWS V14.01,2013-04-23 05:49:00,
2013-04-23 00:54:00,30.4,26.4,30.18,NW,319,3.1,4.0,85,0.00,,---,0.00,VWS V14.01,2013-04-23 05:54:00,
2013-04-23 00:59:00,30.4,26.4,30.18,WNW,298,2.7,4.9,85,0.00,,---,0.00,VWS V14.01,2013-04-23 05:59:00,
2013-04-23 01:04:00,30.2,26.5,30.18,NW,311,3.1,4.9,86,0.00,,---,0.00,VWS V14.01,2013-04-23 06:04:00,
2013-04-23 01:10:00,30.2,26.5,30.18,NW,309,5.4,5.4,86,0.00,,---,0.00,VWS V14.01,2013-04-23 06:10:00,
2013-04-23 01:15:00,30.2,26.5,30.18,NW,316,4.9,5.8,86,0.00,,---,0.00,VWS V14.01,2013-04-23 06:15:00,
2013-04-23 01:20:00,30.2,26.5,30.18,NW,322,5.8,5.8,86,0.00,,---,0.00,VWS V14.01,2013-04-23 06:20:00,
2013-04-23 01:25:00,30.2,26.5,30.18,NNW,346,7.6,7.6,86,0.00,,---,0.00,VWS V14.01,2013-04-23 06:25:00,
2013-04-23 01:30:00,30.2,26.5,30.18,NW,313,5.8,5.8,86,0.00,,---,0.00,VWS V14.01,2013-04-23 06:30:00,
2013-04-23 01:35:00,29.8,25.6,30.18,NNW,327,5.8,8.3,84,0.00,,---,0.00,VWS V14.01,2013-04-23 06:35:00,
2013-04-23 01:41:00,29.7,24.6,30.18,NW,320,5.4,6.3,81,0.00,,---,0.00,VWS V14.01,2013-04-23 06:41:00,
2013-04-23 01:47:00,29.5,23.8,30.18,NW,311,6.7,6.7,79,0.00,,---,0.00,VWS V14.01,2013-04-23 06:47:00,
2013-04-23 01:53:00,29.3,22.7,30.18,NNW,344,5.4,6.3,76,0.00,,---,0.00,VWS V14.01,2013-04-23 06:53:00,
2013-04-23 01:59:00,29.1,21.9,30.18,NW,322,5.4,6.7,74,0.00,,---,0.00,VWS V14.01,2013-04-23 06:59:00,
2013-04-23 02:04:00,29.1,21.6,30.18,WNW,291,5.8,6.3,73,0.00,,---,0.00,VWS V14.01,2013-04-23 07:04:00,
2013-04-23 02:10:00,28.9,21.1,30.18,NW,324,5.4,6.3,72,0.00,,---,0.00,VWS V14.01,2013-04-23 07:10:00,
2013-04-23 02:15:00,28.8,20.6,30.18,NNW,338,5.4,6.3,71,0.00,,---,0.00,VWS V14.01,2013-04-23 07:15:00,
2013-04-23 02:20:00,28.8,20.6,30.18,NW,315,5.8,8.3,71,0.00,,---,0.00,VWS V14.01,2013-04-23 07:20:00,
2013-04-23 02:26:00,28.8,20.2,30.18,NW,324,3.1,4.9,70,0.00,,---,0.00,VWS V14.01,2013-04-23 07:26:00,
2013-04-23 02:32:00,28.6,20.0,30.18,NW,325,5.8,5.8,70,0.00,,---,0.00,VWS V14.01,2013-04-23 07:32:00,
2013-04-23 02:38:00,28.6,19.7,30.18,NW,320,5.8,5.8,69,0.00,,---,0.00,VWS V14.01,2013-04-23 07:38:00,
2013-04-23 02:43:00,28.6,19.7,30.18,NW,322,3.1,5.8,69,0.00,,---,0.00,VWS V14.01,2013-04-23 07:43:00,
2013-04-23 02:49:00,28.6,19.7,30.18,NW,319,6.3,6.3,69,0.00,,---,0.00,VWS V14.01,2013-04-23 07:49:00,
2013-04-23 02:54:00,28.4,19.5,30.18,NW,320,2.7,3.1,69,0.00,,---,0.00,VWS V14.01,2013-04-23 07:54:00,
2013-04-23 03:00:00,28.4,19.5,30.18,NNW,330,4.0,5.4,69,0.00,,---,0.00,VWS V14.01,2013-04-23 08:00:00,
2013-04-23 03:05:00,28.2,19.4,30.18,NNW,335,4.5,8.3,69,0.00,,---,0.00,VWS V14.01,2013-04-23 08:05:00,
2013-04-23 03:11:00,28.0,19.2,30.18,NNW,345,8.3,8.3,69,0.00,,---,0.00,VWS V14.01,2013-04-23 08:11:00,
2013-04-23 03:16:00,27.9,19.0,30.18,NNW,340,3.6,5.8,69,0.00,,---,0.00,VWS V14.01,2013-04-23 08:16:00,
2013-04-23 03:21:00,27.9,19.4,30.18,North,0,7.6,7.6,70,0.00,,---,0.00,VWS V14.01,2013-04-23 08:21:00,
2013-04-23 03:26:00,27.7,19.2,30.18,NNW,332,5.4,6.3,70,0.00,,---,0.00,VWS V14.01,2013-04-23 08:26:00,
2013-04-23 03:32:00,27.3,18.8,30.15,NW,322,3.1,6.3,70,0.00,,---,0.00,VWS V14.01,2013-04-23 08:32:00,
2013-04-23 03:37:00,27.0,18.5,30.15,NNW,342,6.3,7.6,70,0.00,,---,0.00,VWS V14.01,2013-04-23 08:37:00,
2013-04-23 03:42:00,26.6,18.1,30.15,NNW,333,4.9,5.4,70,0.00,,---,0.00,VWS V14.01,2013-04-23 08:42:00,
2013-04-23 03:47:00,26.6,18.1,30.15,NW,318,3.6,6.3,70,0.00,,---,0.00,VWS V14.01,2013-04-23 08:47:00,
2013-04-23 03:52:00,26.1,17.6,30.15,NNW,342,5.8,8.1,70,0.00,,---,0.00,VWS V14.01,2013-04-23 08:52:00,
2013-04-23 03:57:00,25.9,17.5,30.15,NW,322,5.8,5.8,70,0.00,,---,0.00,VWS V14.01,2013-04-23 08:57:00,
2013-04-23 04:03:00,25.7,17.6,30.15,NNW,334,6.3,6.7,71,0.00,,---,0.00,VWS V14.01,2013-04-23 09:03:00,
2013-04-23 04:08:00,25.3,17.3,30.15,NW,323,6.3,6.3,71,0.00,,---,0.00,VWS V14.01,2013-04-23 09:08:00,
2013-04-23 04:13:00,25.3,17.3,30.15,North,353,4.9,11.0,71,0.00,,---,0.00,VWS V14.01,2013-04-23 09:13:00,
2013-04-23 04:19:00,25.0,16.9,30.15,NW,325,4.9,5.8,71,0.00,,---,0.00,VWS V14.01,2013-04-23 09:19:00,
2013-04-23 04:24:00,24.8,16.8,30.15,NNW,345,4.9,5.8,71,0.00,,---,0.00,VWS V14.01,2013-04-23 09:24:00,
2013-04-23 04:30:00,24.8,17.1,30.15,NW,321,3.1,8.3,72,0.00,,---,0.00,VWS V14.01,2013-04-23 09:30:00,
2013-04-23 04:36:00,24.6,16.9,30.15,NW,312,4.0,8.1,72,0.00,,---,0.00,VWS V14.01,2013-04-23 09:36:00,
2013-04-23 04:42:00,24.6,16.9,30.15,NNW,338,5.8,7.6,72,0.00,,---,0.00,VWS V14.01,2013-04-23 09:42:00,
2013-04-23 04:48:00,24.4,16.7,30.15,NNW,332,6.3,6.3,72,0.00,,---,0.00,VWS V14.01,2013-04-23 09:48:00,
2013-04-23 04:53:00,24.3,16.5,30.15,NW,325,3.1,4.0,72,0.00,,---,0.00,VWS V14.01,2013-04-23 09:53:00,
2013-04-23 04:58:00,24.1,16.4,30.15,NNW,331,5.4,5.4,72,0.00,,---,0.00,VWS V14.01,2013-04-23 09:58:00,
2013-04-23 05:04:00,23.7,16.0,30.15,NW,307,3.1,5.4,72,0.00,,---,0.00,VWS V14.01,2013-04-23 10:04:00,
2013-04-23 05:09:00,23.7,16.0,30.15,NNW,337,2.7,4.0,72,0.00,,---,0.00,VWS V14.01,2013-04-23 10:09:00,
2013-04-23 05:15:00,23.5,15.9,30.15,NW,308,4.0,4.9,72,0.00,,---,0.00,VWS V14.01,2013-04-23 10:15:00,
2013-04-23 05:20:00,23.4,15.7,30.15,North,353,3.1,4.0,72,0.00,,---,0.00,VWS V14.01,2013-04-23 10:20:00,
2013-04-23 05:26:00,23.4,15.7,30.15,NNW,345,4.0,9.2,72,0.00,,---,0.00,VWS V14.01,2013-04-23 10:26:00,
2013-04-23 05:31:00,23.2,15.5,30.15,NNW,336,8.3,8.3,72,0.00,,---,0.00,VWS V14.01,2013-04-23 10:31:00,
2013-04-23 05:36:00,23.0,15.3,30.15,NW,322,3.6,6.7,72,0.00,,---,0.00,VWS V14.01,2013-04-23 10:36:00,
2013-04-23 05:42:00,22.8,15.2,30.15,NW,312,2.7,4.0,72,0.00,,---,0.00,VWS V14.01,2013-04-23 10:42:00,
2013-04-23 05:47:00,22.8,15.2,30.15,NNW,328,6.7,6.7,72,0.00,,---,0.00,VWS V14.01,2013-04-23 10:47:00,
2013-04-23 05:53:00,22.6,15.0,30.15,NNW,328,2.7,5.8,72,0.00,,---,0.00,VWS V14.01,2013-04-23 10:53:00,
2013-04-23 05:58:00,22.6,15.0,30.15,NNW,330,5.8,5.8,72,0.00,,---,0.00,VWS V14.01,2013-04-23 10:58:00,
2013-04-23 06:03:00,22.3,14.3,30.15,NW,324,3.6,4.9,71,0.00,,---,0.00,VWS V14.01,2013-04-23 11:03:00,
2013-04-23 06:08:00,22.3,14.3,30.15,NNW,327,8.1,8.1,71,0.00,,---,0.00,VWS V14.01,2013-04-23 11:08:00,
2013-04-23 06:13:00,21.9,14.0,30.15,NNW,330,4.0,4.0,71,0.00,,---,0.00,VWS V14.01,2013-04-23 11:13:00,
2013-04-23 06:18:00,21.9,14.0,30.15,NNW,337,3.1,4.0,71,0.00,,---,0.00,VWS V14.01,2013-04-23 11:18:00,
2013-04-23 06:24:00,21.9,14.0,30.15,North,350,5.4,5.4,71,0.00,,---,0.00,VWS V14.01,2013-04-23 11:24:00,
2013-04-23 06:30:00,21.7,13.8,30.15,NW,321,2.2,4.0,71,0.00,,---,0.00,VWS V14.01,2013-04-23 11:30:00,
2013-04-23 06:35:00,21.9,14.0,30.15,NW,324,0.0,0.0,71,0.00,,---,0.00,VWS V14.01,2013-04-23 11:35:00,
2013-04-23 06:40:00,22.1,14.5,30.15,North,353,0.0,0.0,72,0.00,,---,0.00,VWS V14.01,2013-04-23 11:40:00,
2013-04-23 06:45:00,22.3,14.6,30.18,NW,305,0.0,2.7,72,0.00,,---,0.00,VWS V14.01,2013-04-23 11:45:00,
2013-04-23 06:50:00,22.8,14.8,30.18,NNW,331,3.6,4.9,71,0.00,,---,0.00,VWS V14.01,2013-04-23 11:50:00,
2013-04-23 06:55:00,23.4,15.4,30.18,NNW,330,4.9,5.4,71,0.00,,---,0.00,VWS V14.01,2013-04-23 11:55:00,
2013-04-23 07:01:00,23.5,14.9,30.18,NNW,334,3.1,3.1,69,0.00,,---,0.00,VWS V14.01,2013-04-23 12:01:00,
2013-04-23 07:06:00,23.9,14.9,30.18,NNW,337,2.7,5.4,68,0.00,,---,0.00,VWS V14.01,2013-04-23 12:06:00,
2013-04-23 07:12:00,24.4,14.0,30.18,NNW,335,2.7,4.9,64,0.00,,---,0.00,VWS V14.01,2013-04-23 12:12:00,
2013-04-23 07:17:00,24.4,13.7,30.15,NNW,330,3.6,5.8,63,0.00,,---,0.00,VWS V14.01,2013-04-23 12:17:00,
2013-04-23 07:22:00,24.6,13.1,30.15,NNW,339,4.5,4.9,61,0.00,,---,0.00,VWS V14.01,2013-04-23 12:22:00,
2013-04-23 07:28:00,24.8,13.3,30.15,NNW,337,5.4,5.4,61,0.00,,---,0.00,VWS V14.01,2013-04-23 12:28:00,
2013-04-23 07:33:00,25.2,13.2,30.15,NNW,335,5.4,5.4,60,0.00,,---,0.00,VWS V14.01,2013-04-23 12:33:00,
2013-04-23 07:38:00,25.7,13.8,30.15,NNW,340,5.4,5.8,60,0.00,,---,0.00,VWS V14.01,2013-04-23 12:38:00,
2013-04-23 07:44:00,27.5,14.7,30.15,NNW,344,5.4,8.7,58,0.00,,---,0.00,VWS V14.01,2013-04-23 12:44:00,
2013-04-23 07:50:00,27.3,12.5,30.15,NNW,343,7.6,7.6,53,0.00,,---,0.00,VWS V14.01,2013-04-23 12:50:00,
2013-04-23 07:56:00,27.7,13.2,30.15,NW,314,5.4,5.4,54,0.00,,---,0.00,VWS V14.01,2013-04-23 12:56:00,
2013-04-23 08:02:00,27.0,11.7,30.15,NW,325,4.0,6.3,52,0.00,,---,0.00,VWS V14.01,2013-04-23 13:02:00,
2013-04-23 08:07:00,26.6,12.2,30.15,NW,323,5.8,8.3,54,0.00,,---,0.00,VWS V14.01,2013-04-23 13:07:00,
2013-04-23 08:13:00,26.4,12.5,30.15,North,353,7.6,7.6,55,0.00,,---,0.00,VWS V14.01,2013-04-23 13:13:00,
2013-04-23 08:19:00,26.6,12.6,30.15,NW,312,8.7,8.7,55,0.00,,---,0.00,VWS V14.01,2013-04-23 13:19:00,
2013-04-23 08:24:00,26.6,12.6,30.15,NNW,335,8.1,8.1,55,0.00,,---,0.00,VWS V14.01,2013-04-23 13:24:00,
2013-04-23 08:29:00,26.8,12.4,30.15,NNW,339,7.6,7.6,54,0.00,,---,0.00,VWS V14.01,2013-04-23 13:29:00,
2013-04-23 08:34:00,26.8,12.4,30.15,NW,325,5.8,5.8,54,0.00,,---,0.00,VWS V14.01,2013-04-23 13:34:00,
2013-04-23 08:40:00,27.0,12.6,30.15,NNW,338,4.0,4.0,54,0.00,,---,0.00,VWS V14.01,2013-04-23 13:40:00,
2013-04-23 08:46:00,27.0,12.6,30.18,NW,321,8.1,8.1,54,0.00,,---,0.00,VWS V14.01,2013-04-23 13:46:00,
2013-04-23 08:52:00,27.1,12.3,30.18,North,353,8.3,8.3,53,0.00,,---,0.00,VWS V14.01,2013-04-23 13:52:00,
2013-04-23 08:57:00,27.5,13.1,30.18,WNW,302,4.0,6.3,54,0.00,,---,0.00,VWS V14.01,2013-04-23 13:57:00,
2013-04-23 09:02:00,27.9,13.0,30.18,NNW,332,6.3,8.3,53,0.00,,---,0.00,VWS V14.01,2013-04-23 14:02:00,
2013-04-23 09:08:00,28.0,13.1,30.18,NNW,341,5.8,5.8,53,0.00,,---,0.00,VWS V14.01,2013-04-23 14:08:00,
2013-04-23 09:13:00,28.4,13.5,30.18,NNW,340,7.2,8.1,53,0.00,,---,0.00,VWS V14.01,2013-04-23 14:13:00,
2013-04-23 09:18:00,28.6,13.2,30.15,NW,307,6.3,8.3,52,0.00,,---,0.00,VWS V14.01,2013-04-23 14:18:00,
2013-04-23 09:23:00,28.8,13.4,30.15,NW,308,3.1,5.4,52,0.00,,---,0.00,VWS V14.01,2013-04-23 14:23:00,
2013-04-23 09:29:00,28.9,13.5,30.15,NW,306,5.4,5.4,52,0.00,,---,0.00,VWS V14.01,2013-04-23 14:29:00,
2013-04-23 09:35:00,29.1,13.3,30.15,WNW,301,6.3,7.6,51,0.00,,---,0.00,VWS V14.01,2013-04-23 14:35:00,
2013-04-23 09:40:00,29.3,13.9,30.15,NW,326,5.8,6.3,52,0.00,,---,0.00,VWS V14.01,2013-04-23 14:40:00,
2013-04-23 09:46:00,29.8,13.9,30.18,NNW,338,4.0,8.3,51,0.00,,---,0.00,VWS V14.01,2013-04-23 14:46:00,
2013-04-23 09:51:00,30.2,14.3,30.18,NW,314,4.0,6.3,51,0.00,,---,0.00,VWS V14.01,2013-04-23 14:51:00,
2013-04-23 09:57:00,30.4,14.4,30.18,WNW,301,3.1,8.7,51,0.00,,---,0.00,VWS V14.01,2013-04-23 14:57:00,
2013-04-23 10:02:00,30.7,14.8,30.18,NW,311,7.2,7.2,51,0.00,,---,0.00,VWS V14.01,2013-04-23 15:02:00,
2013-04-23 10:08:00,31.1,14.6,30.18,NW,316,6.3,7.6,50,0.00,,---,0.00,VWS V14.01,2013-04-23 15:08:00,
2013-04-23 10:14:00,30.9,14.0,30.15,NW,305,7.6,7.6,49,0.00,,---,0.00,VWS V14.01,2013-04-23 15:14:00,
2013-04-23 10:19:00,31.1,14.6,30.15,NW,306,10.1,10.1,50,0.00,,---,0.00,VWS V14.01,2013-04-23 15:19:00,
2013-04-23 10:25:00,31.3,14.8,30.15,NW,312,8.3,8.3,50,0.00,,---,0.00,VWS V14.01,2013-04-23 15:25:00,
2013-04-23 10:31:00,31.3,14.4,30.15,West,280,3.6,8.1,49,0.00,,---,0.00,VWS V14.01,2013-04-23 15:31:00,
2013-04-23 10:36:00,31.5,15.0,30.15,NW,318,8.1,10.5,50,0.00,,---,0.00,VWS V14.01,2013-04-23 15:36:00,
2013-04-23 10:42:00,32.2,15.2,30.15,NW,316,7.2,7.2,49,0.00,,---,0.00,VWS V14.01,2013-04-23 15:42:00,
2013-04-23 10:48:00,32.5,15.5,30.15,NNW,327,8.7,8.7,49,0.00,,---,0.00,VWS V14.01,2013-04-23 15:48:00,
2013-04-23 10:53:00,32.7,15.7,30.15,NNW,334,4.0,8.7,49,0.00,,---,0.00,VWS V14.01,2013-04-23 15:53:00,
2013-04-23 10:59:00,33.1,15.1,30.15,WNW,302,5.4,7.6,47,0.00,,---,0.00,VWS V14.01,2013-04-23 15:59:00,
2013-04-23 11:04:00,33.3,14.7,30.15,NW,315,13.2,14.1,46,0.00,,---,0.00,VWS V14.01,2013-04-23 16:04:00,
2013-04-23 11:10:00,33.6,14.6,30.15,North,0,8.1,8.7,45,0.00,,---,0.00,VWS V14.01,2013-04-23 16:10:00,
2013-04-23 11:15:00,33.8,14.7,30.15,NNW,331,8.3,10.1,45,0.00,,---,0.00,VWS V14.01,2013-04-23 16:15:00,
2013-04-23 11:20:00,34.0,14.9,30.15,NNW,340,8.3,8.7,45,0.00,,---,0.00,VWS V14.01,2013-04-23 16:20:00,
2013-04-23 11:25:00,34.2,14.0,30.15,NW,321,8.1,10.5,43,0.00,,---,0.00,VWS V14.01,2013-04-23 16:25:00,
2013-04-23 11:31:00,34.2,14.0,30.15,NW,305,11.4,14.1,43,0.00,,---,0.00,VWS V14.01,2013-04-23 16:31:00,
2013-04-23 11:36:00,34.5,14.9,30.15,NW,313,8.1,9.2,44,0.00,,---,0.00,VWS V14.01,2013-04-23 16:36:00,
2013-04-23 11:41:00,35.1,14.8,30.15,NW,324,11.0,11.0,43,0.00,,---,0.00,VWS V14.01,2013-04-23 16:41:00,
2013-04-23 11:46:00,35.4,15.7,30.15,NW,319,7.6,8.7,44,0.00,,---,0.00,VWS V14.01,2013-04-23 16:46:00,
2013-04-23 11:52:00,35.4,15.2,30.15,NW,315,5.4,10.5,43,0.00,,---,0.00,VWS V14.01,2013-04-23 16:52:00,
2013-04-23 11:58:00,35.8,15.5,30.15,North,353,4.9,6.3,43,0.00,,---,0.00,VWS V14.01,2013-04-23 16:58:00,
2013-04-23 12:04:00,36.3,15.4,30.12,NNW,340,8.3,8.3,42,0.00,,---,0.00,VWS V14.01,2013-04-23 17:04:00,
2013-04-23 12:10:00,36.0,15.1,30.12,NW,323,5.8,5.8,42,0.00,,---,0.00,VWS V14.01,2013-04-23 17:10:00,
2013-04-23 12:15:00,36.3,15.4,30.12,NW,313,5.4,9.6,42,0.00,,---,0.00,VWS V14.01,2013-04-23 17:15:00,
2013-04-23 12:20:00,36.5,15.6,30.12,North,357,4.0,6.3,42,0.00,,---,0.00,VWS V14.01,2013-04-23 17:20:00,
2013-04-23 12:26:00,36.3,14.9,30.12,NNW,327,10.1,11.9,41,0.00,,---,0.00,VWS V14.01,2013-04-23 17:26:00,
2013-04-23 12:31:00,36.5,15.1,30.12,NW,314,3.6,5.8,41,0.00,,---,0.00,VWS V14.01,2013-04-23 17:31:00,
2013-04-23 12:37:00,36.7,15.2,30.12,NW,306,11.0,11.0,41,0.00,,---,0.00,VWS V14.01,2013-04-23 17:37:00,
2013-04-23 12:42:00,36.9,15.9,30.12,WNW,295,8.1,8.3,42,0.00,,---,0.00,VWS V14.01,2013-04-23 17:42:00,
2013-04-23 12:48:00,37.2,15.7,30.12,NW,321,10.1,10.1,41,0.00,,---,0.00,VWS V14.01,2013-04-23 17:48:00,
2013-04-23 12:53:00,37.0,15.0,30.12,West,281,11.0,11.0,40,0.00,,---,0.00,VWS V14.01,2013-04-23 17:53:00,
2013-04-23 12:58:00,37.2,15.7,30.12,NW,312,12.8,12.8,41,0.00,,---,0.00,VWS V14.01,2013-04-23 17:58:00,
2013-04-23 13:04:00,37.4,15.3,30.12,WNW,303,11.4,11.4,40,0.00,,---,0.00,VWS V14.01,2013-04-23 18:04:00,
2013-04-23 13:09:00,37.6,15.5,30.12,NW,315,12.3,12.3,40,0.00,,---,0.00,VWS V14.01,2013-04-23 18:09:00,
2013-04-23 13:15:00,37.6,15.5,30.12,NW,317,8.3,8.3,40,0.00,,---,0.00,VWS V14.01,2013-04-23 18:15:00,
2013-04-23 13:20:00,37.4,14.7,30.12,West,274,10.1,10.5,39,0.00,,---,0.00,VWS V14.01,2013-04-23 18:20:00,
2013-04-23 13:26:00,37.4,15.3,30.12,West,276,14.5,14.5,40,0.00,,---,0.00,VWS V14.01,2013-04-23 18:26:00,
2013-04-23 13:31:00,37.6,15.5,30.12,WNW,290,11.0,11.0,40,0.00,,---,0.00,VWS V14.01,2013-04-23 18:31:00,
2013-04-23 13:37:00,37.9,15.8,30.12,WNW,297,8.1,12.3,40,0.00,,---,0.00,VWS V14.01,2013-04-23 18:37:00,
2013-04-23 13:42:00,37.9,15.2,30.12,NW,325,12.8,15.4,39,0.00,,---,0.00,VWS V14.01,2013-04-23 18:42:00,
2013-04-23 13:48:00,38.1,15.4,30.12,WNW,302,7.6,8.1,39,0.00,,---,0.00,VWS V14.01,2013-04-23 18:48:00,
2013-04-23 13:54:00,38.1,15.4,30.12,NW,320,6.7,8.7,39,0.00,,---,0.00,VWS V14.01,2013-04-23 18:54:00,
2013-04-23 13:59:00,37.9,15.2,30.12,WNW,300,6.3,10.1,39,0.00,,---,0.00,VWS V14.01,2013-04-23 18:59:00,
2013-04-23 14:04:00,38.5,15.7,30.12,WNW,303,12.3,12.3,39,0.00,,---,0.00,VWS V14.01,2013-04-23 19:04:00,
2013-04-23 14:10:00,38.7,15.9,30.12,WNW,291,12.3,12.3,39,0.00,,---,0.00,VWS V14.01,2013-04-23 19:10:00,
2013-04-23 14:16:00,38.5,15.7,30.12,NNW,340,8.3,8.3,39,0.00,,---,0.00,VWS V14.01,2013-04-23 19:16:00,
2013-04-23 14:22:00,38.5,15.7,30.12,NNW,327,10.5,10.5,39,0.00,,---,0.00,VWS V14.01,2013-04-23 19:22:00,
2013-04-23 14:27:00,38.7,15.9,30.12,WNW,292,6.3,8.7,39,0.00,,---,0.00,VWS V14.01,2013-04-23 19:27:00,
2013-04-23 14:33:00,38.7,15.9,30.09,NW,306,5.4,10.5,39,0.00,,---,0.00,VWS V14.01,2013-04-23 19:33:00,
2013-04-23 14:38:00,39.2,16.3,30.09,West,280,8.7,10.5,39,0.00,,---,0.00,VWS V14.01,2013-04-23 19:38:00,
2013-04-23 14:43:00,38.8,16.0,30.09,NW,325,12.8,12.8,39,0.00,,---,0.00,VWS V14.01,2013-04-23 19:43:00,
2013-04-23 14:49:00,38.7,15.3,30.09,WNW,301,11.9,13.2,38,0.00,,---,0.00,VWS V14.01,2013-04-23 19:49:00,
2013-04-23 14:54:00,38.8,15.4,30.09,NW,319,11.0,12.8,38,0.00,,---,0.00,VWS V14.01,2013-04-23 19:54:00,
2013-04-23 14:59:00,38.8,14.8,30.09,WNW,287,13.6,13.6,37,0.00,,---,0.00,VWS V14.01,2013-04-23 19:59:00,
2013-04-23 15:05:00,39.0,15.0,30.09,NW,319,4.0,12.3,37,0.00,,---,0.00,VWS V14.01,2013-04-23 20:05:00,
2013-04-23 15:11:00,39.4,15.3,30.09,NW,320,11.0,11.0,37,0.00,,---,0.00,VWS V14.01,2013-04-23 20:11:00,
2013-04-23 15:16:00,39.6,14.2,30.09,WNW,300,11.0,15.4,35,0.00,,---,0.00,VWS V14.01,2013-04-23 20:16:00,
2013-04-23 15:21:00,39.6,14.2,30.09,WNW,298,8.1,12.3,35,0.00,,---,0.00,VWS V14.01,2013-04-23 20:21:00,
2013-04-23 15:27:00,39.4,14.7,30.09,West,277,8.3,10.5,36,0.00,,---,0.00,VWS V14.01,2013-04-23 20:27:00,
2013-04-23 15:33:00,39.7,14.3,30.09,NW,324,12.8,12.8,35,0.00,,---,0.00,VWS V14.01,2013-04-23 20:33:00,
2013-04-23 15:38:00,39.6,14.2,30.09,West,274,8.7,8.7,35,0.00,,---,0.00,VWS V14.01,2013-04-23 20:38:00,
2013-04-23 15:43:00,39.9,14.5,30.09,NW,305,8.7,8.7,35,0.00,,---,0.00,VWS V14.01,2013-04-23 20:43:00,
2013-04-23 15:48:00,39.9,14.5,30.09,NW,310,10.1,10.1,35,0.00,,---,0.00,VWS V14.01,2013-04-23 20:48:00,
2013-04-23 15:54:00,40.1,14.7,30.09,WNW,295,8.3,15.0,35,0.00,,---,0.00,VWS V14.01,2013-04-23 20:54:00,
2013-04-23 16:00:00,39.9,13.8,30.09,NW,324,7.6,13.2,34,0.00,,---,0.00,VWS V14.01,2013-04-23 21:00:00,
2013-04-23 16:05:00,39.7,13.7,30.09,WNW,294,8.3,10.1,34,0.00,,---,0.00,VWS V14.01,2013-04-23 21:05:00,
2013-04-23 16:10:00,39.9,14.5,30.09,WNW,301,10.5,10.5,35,0.00,,---,0.00,VWS V14.01,2013-04-23 21:10:00,
2013-04-23 16:16:00,39.9,14.5,30.09,WNW,286,12.8,12.8,35,0.00,,---,0.00,VWS V14.01,2013-04-23 21:16:00,
2013-04-23 16:22:00,39.9,14.5,30.09,WNW,297,8.3,12.3,35,0.00,,---,0.00,VWS V14.01,2013-04-23 21:22:00,
2013-04-23 16:27:00,39.9,13.8,30.09,NW,305,12.8,14.5,34,0.00,,---,0.00,VWS V14.01,2013-04-23 21:27:00,
2013-04-23 16:33:00,40.1,14.0,30.09,NNW,336,5.8,8.7,34,0.00,,---,0.00,VWS V14.01,2013-04-23 21:33:00,
2013-04-23 16:38:00,40.1,14.7,30.09,NW,316,8.7,11.0,35,0.00,,---,0.00,VWS V14.01,2013-04-23 21:38:00,
2013-04-23 16:44:00,40.3,14.8,30.09,WNW,300,8.3,13.2,35,0.00,,---,0.00,VWS V14.01,2013-04-23 21:44:00,
2013-04-23 16:50:00,40.1,14.7,30.09,NW,319,8.1,13.2,35,0.00,,---,0.00,VWS V14.01,2013-04-23 21:50:00,
2013-04-23 16:55:00,40.1,14.7,30.09,WSW,244,6.7,11.0,35,0.00,,---,0.00,VWS V14.01,2013-04-23 21:55:00,
2013-04-23 17:01:00,39.9,14.5,30.09,NW,305,11.0,11.0,35,0.00,,---,0.00,VWS V14.01,2013-04-23 22:01:00,
2013-04-23 17:06:00,40.1,14.7,30.09,WNW,297,8.3,8.3,35,0.00,,---,0.00,VWS V14.01,2013-04-23 22:06:00,
2013-04-23 17:11:00,40.1,14.7,30.09,NW,304,9.2,11.0,35,0.00,,---,0.00,VWS V14.01,2013-04-23 22:11:00,
2013-04-23 17:17:00,40.5,15.0,30.09,NW,325,8.7,8.7,35,0.00,,---,0.00,VWS V14.01,2013-04-23 22:17:00,
2013-04-23 17:22:00,40.5,15.0,30.09,WNW,295,6.7,6.7,35,0.00,,---,0.00,VWS V14.01,2013-04-23 22:22:00,
2013-04-23 17:27:00,40.5,14.3,30.09,WNW,291,7.6,8.1,34,0.00,,---,0.00,VWS V14.01,2013-04-23 22:27:00,
2013-04-23 17:32:00,40.5,14.3,30.09,NW,323,10.5,10.5,34,0.00,,---,0.00,VWS V14.01,2013-04-23 22:32:00,
2013-04-23 17:37:00,40.3,14.2,30.09,NW,305,10.1,10.1,34,0.00,,---,0.00,VWS V14.01,2013-04-23 22:37:00,
2013-04-23 17:42:00,40.1,14.0,30.09,WNW,301,10.5,10.5,34,0.00,,---,0.00,VWS V14.01,2013-04-23 22:42:00,
2013-04-23 17:47:00,39.7,13.7,30.06,NW,325,8.7,8.7,34,0.00,,---,0.00,VWS V14.01,2013-04-23 22:47:00,
2013-04-23 17:52:00,39.7,13.7,30.06,NW,326,11.9,11.9,34,0.00,,---,0.00,VWS V14.01,2013-04-23 22:52:00,
2013-04-23 17:57:00,39.6,13.5,30.06,WNW,298,8.1,13.2,34,0.00,,---,0.00,VWS V14.01,2013-04-23 22:57:00,
2013-04-23 18:03:00,39.6,13.5,30.06,WNW,283,15.0,15.0,34,0.00,,---,0.00,VWS V14.01,2013-04-23 23:03:00,
2013-04-23 18:08:00,39.4,13.4,30.06,NW,314,6.3,12.8,34,0.00,,---,0.00,VWS V14.01,2013-04-23 23:08:00,
2013-04-23 18:14:00,39.2,13.2,30.06,NW,306,10.5,11.0,34,0.00,,---,0.00,VWS V14.01,2013-04-23 23:14:00,
2013-04-23 18:20:00,38.8,13.5,30.06,WSW,257,6.3,6.3,35,0.00,,---,0.00,VWS V14.01,2013-04-23 23:20:00,
2013-04-23 18:25:00,38.8,12.9,30.06,West,272,8.7,10.1,34,0.00,,---,0.00,VWS V14.01,2013-04-23 23:25:00,
2013-04-23 18:31:00,38.3,12.4,30.06,NNW,334,5.8,10.1,34,0.00,,---,0.00,VWS V14.01,2013-04-23 23:31:00,
2013-04-23 18:36:00,38.3,12.4,30.06,NW,308,8.1,10.5,34,0.00,,---,0.00,VWS V14.01,2013-04-23 23:36:00,
2013-04-23 18:41:00,37.9,12.1,30.06,NW,309,6.3,6.7,34,0.00,,---,0.00,VWS V14.01,2013-04-23 23:41:00,
2013-04-23 18:47:00,37.8,11.9,30.06,NNW,333,3.1,5.4,34,0.00,,---,0.00,VWS V14.01,2013-04-23 23:47:00,
2013-04-23 18:52:00,37.4,11.6,30.06,NW,304,8.1,10.1,34,0.00,,---,0.00,VWS V14.01,2013-04-23 23:52:00,
2013-04-23 18:58:00,37.2,12.1,30.06,NW,304,8.1,8.1,35,0.00,,---,0.00,VWS V14.01,2013-04-23 23:58:00,
2013-04-23 19:03:00,37.0,11.9,30.06,WNW,285,8.7,8.7,35,0.00,,---,0.00,VWS V14.01,2013-04-24 00:03:00,
2013-04-23 19:09:00,36.9,11.8,30.06,WNW,287,6.3,6.3,35,0.00,,---,0.00,VWS V14.01,2013-04-24 00:09:00,
2013-04-23 19:14:00,36.7,12.3,30.06,WNW,289,5.8,10.5,36,0.00,,---,0.00,VWS V14.01,2013-04-24 00:14:00,
2013-04-23 19:20:00,36.1,11.8,30.06,WNW,298,8.1,10.1,36,0.00,,---,0.00,VWS V14.01,2013-04-24 00:20:00,
2013-04-23 19:25:00,35.8,11.4,30.06,WNW,290,5.8,8.1,36,0.00,,---,0.00,VWS V14.01,2013-04-24 00:25:00,
2013-04-23 19:31:00,35.4,11.8,30.06,NW,313,4.0,6.3,37,0.00,,---,0.00,VWS V14.01,2013-04-24 00:31:00,
2013-04-23 19:37:00,35.1,12.0,30.06,NW,305,5.8,6.3,38,0.00,,---,0.00,VWS V14.01,2013-04-24 00:37:00,
2013-04-23 19:43:00,34.7,12.3,30.06,WNW,301,9.6,9.6,39,0.00,,---,0.00,VWS V14.01,2013-04-24 00:43:00,
2013-04-23 19:48:00,34.3,12.5,30.06,WNW,292,8.1,8.1,40,0.00,,---,0.00,VWS V14.01,2013-04-24 00:48:00,
2013-04-23 19:54:00,34.0,12.2,30.06,West,276,5.4,8.3,40,0.00,,---,0.00,VWS V14.01,2013-04-24 00:54:00,
2013-04-23 19:59:00,33.8,12.1,30.06,West,275,3.6,4.9,40,0.00,,---,0.00,VWS V14.01,2013-04-24 00:59:00,
2013-04-23 20:04:00,33.4,12.3,30.06,West,266,7.6,8.3,41,0.00,,---,0.00,VWS V14.01,2013-04-24 01:04:00,
2013-04-23 20:10:00,33.3,12.1,30.06,WSW,257,5.8,5.8,41,0.00,,---,0.00,VWS V14.01,2013-04-24 01:10:00,
2013-04-23 20:16:00,32.7,11.6,30.06,West,277,4.0,5.8,41,0.00,,---,0.00,VWS V14.01,2013-04-24 01:16:00,
2013-04-23 20:22:00,32.2,11.7,30.06,WNW,291,4.9,4.9,42,0.00,,---,0.00,VWS V14.01,2013-04-24 01:22:00,
2013-04-23 20:27:00,32.2,11.7,30.06,West,271,3.1,5.4,42,0.00,,---,0.00,VWS V14.01,2013-04-24 01:27:00,
2013-04-23 20:33:00,31.3,11.4,30.06,West,261,4.9,4.9,43,0.00,,---,0.00,VWS V14.01,2013-04-24 01:33:00,
2013-04-23 20:38:00,30.9,11.6,30.06,West,260,4.9,6.3,44,0.00,,---,0.00,VWS V14.01,2013-04-24 01:38:00,
2013-04-23 20:43:00,30.6,11.8,30.06,WNW,285,4.9,5.4,45,0.00,,---,0.00,VWS V14.01,2013-04-24 01:43:00,
2013-04-23 20:49:00,30.2,11.9,30.06,West,281,4.9,5.4,46,0.00,,---,0.00,VWS V14.01,2013-04-24 01:49:00,
2013-04-23 20:55:00,30.0,12.2,30.06,WNW,301,5.4,6.3,47,0.00,,---,0.00,VWS V14.01,2013-04-24 01:55:00,
2013-04-23 21:00:00,29.8,12.6,30.06,WNW,289,5.8,5.8,48,0.00,,---,0.00,VWS V14.01,2013-04-24 02:00:00,
2013-04-23 21:06:00,29.8,12.6,30.06,WNW,289,3.1,3.6,48,0.00,,---,0.00,VWS V14.01,2013-04-24 02:06:00,
2013-04-23 21:12:00,29.7,12.4,30.06,WNW,282,4.9,4.9,48,0.00,,---,0.00,VWS V14.01,2013-04-24 02:12:00,
2013-04-23 21:18:00,29.5,11.8,30.06,West,276,4.0,4.0,47,0.00,,---,0.00,VWS V14.01,2013-04-24 02:18:00,
2013-04-23 21:23:00,29.3,12.1,30.06,West,277,5.8,6.3,48,0.00,,---,0.00,VWS V14.01,2013-04-24 02:23:00,
2013-04-23 21:28:00,29.1,11.9,30.06,West,272,4.0,6.3,48,0.00,,---,0.00,VWS V14.01,2013-04-24 02:28:00,
2013-04-23 21:34:00,29.1,11.9,30.06,West,277,5.4,6.3,48,0.00,,---,0.00,VWS V14.01,2013-04-24 02:34:00,
2013-04-23 21:40:00,28.9,11.7,30.06,West,265,5.8,6.3,48,0.00,,---,0.00,VWS V14.01,2013-04-24 02:40:00,
2013-04-23 21:45:00,28.8,12.0,30.06,West,274,3.1,5.8,49,0.00,,---,0.00,VWS V14.01,2013-04-24 02:45:00,
2013-04-23 21:51:00,28.6,11.9,30.06,West,261,4.9,4.9,49,0.00,,---,0.00,VWS V14.01,2013-04-24 02:51:00,
2013-04-23 21:57:00,28.2,12.0,30.06,West,261,4.0,5.4,50,0.00,,---,0.00,VWS V14.01,2013-04-24 02:57:00,
2013-04-23 22:03:00,28.0,11.8,30.09,WSW,256,2.7,4.9,50,0.00,,---,0.00,VWS V14.01,2013-04-24 03:03:00,
2013-04-23 22:08:00,27.9,12.1,30.09,WSW,256,3.6,5.4,51,0.00,,---,0.00,VWS V14.01,2013-04-24 03:08:00,
2013-04-23 22:14:00,27.7,11.9,30.09,WSW,256,3.6,3.6,51,0.00,,---,0.00,VWS V14.01,2013-04-24 03:14:00,
2013-04-23 22:20:00,27.5,11.8,30.06,WSW,256,3.1,4.9,51,0.00,,---,0.00,VWS V14.01,2013-04-24 03:20:00,
2013-04-23 22:26:00,27.3,12.0,30.06,WSW,256,3.6,4.9,52,0.00,,---,0.00,VWS V14.01,2013-04-24 03:26:00,
2013-04-23 22:33:00,27.1,11.9,30.06,WSW,256,2.7,3.6,52,0.00,,---,0.00,VWS V14.01,2013-04-24 03:33:00,
2013-04-23 22:39:00,26.8,11.5,30.06,WSW,256,3.1,3.6,52,0.00,,---,0.00,VWS V14.01,2013-04-24 03:39:00,
2013-04-23 22:44:00,26.6,11.8,30.06,WSW,256,2.2,3.6,53,0.00,,---,0.00,VWS V14.01,2013-04-24 03:44:00,
2013-04-23 22:50:00,26.2,11.4,30.06,WSW,256,3.1,3.1,53,0.00,,---,0.00,VWS V14.01,2013-04-24 03:50:00,
2013-04-23 22:56:00,25.9,11.1,30.06,WSW,256,2.7,3.1,53,0.00,,---,0.00,VWS V14.01,2013-04-24 03:56:00,
2013-04-23 23:01:00,25.7,10.9,30.06,WSW,256,2.7,3.1,53,0.00,,---,0.00,VWS V14.01,2013-04-24 04:01:00,
2013-04-23 23:02:00,25.7,10.9,30.06,WSW,256,3.1,3.1,53,0.00,,---,0.00,VWS V14.01,2013-04-24 04:02:00,
2013-04-23 23:03:00,25.5,10.8,30.06,WSW,256,2.7,3.6,53,0.00,,---,0.00,VWS V14.01,2013-04-24 04:03:00,
2013-04-23 23:06:00,25.3,10.6,30.06,WSW,256,3.1,3.6,53,0.00,,---,0.00,VWS V14.01,2013-04-24 04:06:00,
2013-04-23 23:11:00,25.2,10.4,30.06,WSW,256,4.0,4.0,53,0.00,,---,0.00,VWS V14.01,2013-04-24 04:11:00,
2013-04-23 23:15:00,25.0,10.7,30.06,WSW,256,4.0,4.0,54,0.00,,---,0.00,VWS V14.01,2013-04-24 04:15:00,
2013-04-23 23:21:00,24.6,10.4,30.06,WSW,250,3.6,4.9,54,0.00,,---,0.00,VWS V14.01,2013-04-24 04:21:00,
2013-04-23 23:26:00,24.6,10.8,30.06,WSW,248,4.0,4.9,55,0.00,,---,0.00,VWS V14.01,2013-04-24 04:26:00,
2013-04-23 23:31:00,24.4,10.6,30.06,WSW,248,4.0,4.0,55,0.00,,---,0.00,VWS V14.01,2013-04-24 04:31:00,
2013-04-23 23:36:00,24.4,10.6,30.06,WSW,248,3.1,3.1,55,0.00,,---,0.00,VWS V14.01,2013-04-24 04:36:00,
2013-04-23 23:42:00,24.4,10.6,30.06,WSW,248,2.2,2.7,55,0.00,,---,0.00,VWS V14.01,2013-04-24 04:42:00,
2013-04-23 23:47:00,24.4,11.0,30.06,WSW,248,2.7,2.7,56,0.00,,---,0.00,VWS V14.01,2013-04-24 04:47:00,
2013-04-23 23:53:00,24.3,10.8,30.06,WSW,248,2.7,2.7,56,0.00,,---,0.00,VWS V14.01,2013-04-24 04:53:00,
2013-04-23 23:59:00,24.1,10.7,30.06,WSW,248,2.7,2.7,56,0.00,,---,0.00,VWS V14.01,2013-04-24 04:59:00,